CW9676 Weather Reports


Display with metric or nautical units.
time (UTC)temp
F
wind
direction
speed
MPH
gust
MPH
rain 1hr
in
rain 24hr
in
rain mn
in
humidity
%
barometer
mb
20260506081536 47 250 8.0 15.0 0.00 0.03 0.00 63 1009.1
20260506080534 47 4 6.0 12.0 0.00 0.03 0.00 63 1009.3
20260506073424 48 220 7.0 13.0 0.00 0.03 0.00 61 1009.4
20260506071218 48 215 7.0 14.0 0.00 0.03 0.00 60 1009.2
20260506070215 48 226 7.0 14.0 0.00 0.03 0.00 60 1009.2
20260506061018 50 246 8.0 15.0 0.00 0.03 0.00 57 1008.6
20260506050924 51 234 5.0 14.0 0.00 0.03 0.03 53 1008.3
20260506044814 52 222 8.0 16.0 0.00 0.03 0.03 52 1008.3
20260506043832 53 230 9.0 15.0 0.00 0.03 0.03 52 1008.1
20260506041651 53 220 7.0 14.0 0.00 0.03 0.03 53 1008.0
20260506040636 54 233 7.0 14.0 0.00 0.03 0.03 52 1007.8
20260506035614 54 173 8.0 18.0 0.00 0.03 0.03 51 1007.5
20260506033452 54 212 9.0 16.0 0.00 0.03 0.03 50 1007.1
20260506032436 55 184 8.0 25.0 0.00 0.03 0.03 49 1007.0
20260506030257 56 184 10.0 23.0 0.00 0.03 0.03 47 1006.6
20260506025254 56 4 9.0 19.0 0.00 0.03 0.03 46 1006.2
20260506024242 56 202 10.0 19.0 0.00 0.03 0.03 45 1006.1
20260506023225 56 218 9.0 16.0 0.00 0.03 0.03 44 1006.0
20260506022206 57 186 11.0 21.0 0.00 0.03 0.03 44 1005.8
20260506021223 58 212 11.0 21.0 0.00 0.03 0.03 42 1005.6
20260506020218 58 168 12.0 19.0 0.00 0.03 0.03 40 1005.5
20260506015234 59 212 11.0 20.0 0.00 0.03 0.03 40 1005.2
20260506014236 59 4 11.0 22.0 0.00 0.03 0.03 38 1005.2
20260506013235 60 177 11.0 22.0 0.00 0.03 0.03 38 1005.1
20260506012224 61 4 12.0 21.0 0.00 0.03 0.03 37 1005.0
20260506011209 61 199 11.0 23.0 0.00 0.03 0.03 35 1004.8
20260506010145 60 186 12.0 23.0 0.00 0.03 0.03 35 1004.7
20260506005143 60 177 12.0 24.0 0.00 0.03 0.03 35 1004.7
20260506004147 61 177 14.0 25.0 0.00 0.03 0.03 34 1004.7
20260506001957 65 201 17.0 33.0 0.00 0.03 0.03 30 1004.5
20260506000946 65 179 16.0 27.0 0.00 0.03 0.03 31 1004.5
20260506000000 65 214 16.0 29.0 0.00 0.03 0.03 31 1004.3
20260505235003 64 185 15.0 29.0 0.00 0.03 0.03 31 1004.4
20260505233939 64 177 13.0 22.0 0.00 0.03 0.03 35 1004.4
20260505230728 64 194 13.0 24.0 0.00 0.03 0.03 37 1004.4
20260505225656 62 151 14.0 23.0 0.00 0.03 0.03 43 1004.5
20260505224628 62 163 12.0 23.0 0.00 0.03 0.03 44 1004.6
20260505223633 61 142 12.0 21.0 0.00 0.03 0.03 43 1004.6
20260505222642 62 179 13.0 27.0 0.00 0.03 0.03 44 1004.7
20260505220540 64 152 8.0 17.0 0.00 0.03 0.03 48 1004.8
20260505215600 61 142 10.0 17.0 0.00 0.03 0.03 50 1005.0
20260505213455 61 148 9.0 15.0 0.00 0.03 0.03 57 1005.4
20260505212509 59 117 7.0 15.0 0.00 0.03 0.03 59 1005.6
20260505211523 58 136 8.0 15.0 0.00 0.03 0.03 64 1005.7
20260505210456 57 148 5.0 14.0 0.00 0.03 0.03 68 1005.7
20260505205505 56 139 9.0 14.0 0.00 0.03 0.03 72 1005.9
20260505204504 59 172 8.0 17.0 0.00 0.03 0.03 59 1005.9
20260505203437 60 215 11.0 17.0 0.00 0.03 0.03 53 1005.7
20260505202445 61 148 9.0 24.0 0.00 0.03 0.03 50 1006.0
20260505201427 61 178 12.0 24.0 0.00 0.03 0.03 50 1005.9
20260505200355 62 213 14.0 22.0 0.00 0.03 0.03 52 1005.9
20260505194149 62 221 10.0 17.0 0.00 0.03 0.03 56 1006.1
20260505193131 58 164 11.0 19.0 0.00 0.03 0.03 59 1006.2
20260505192139 60 223 10.0 22.0 0.00 0.03 0.03 58 1006.3
20260505191107 57 193 12.0 22.0 0.00 0.03 0.03 64 1006.4
20260505190126 56 157 12.0 24.0 0.00 0.03 0.03 65 1006.4
20260505185131 57 161 12.0 24.0 0.00 0.03 0.03 65 1006.6
20260505184153 56 154 11.0 20.0 0.00 0.03 0.03 71 1006.8
20260505183138 56 155 10.0 21.0 0.00 0.03 0.03 70 1006.9
20260505182106 55 219 9.0 21.0 0.00 0.03 0.03 70 1006.8
20260505181108 56 4 8.0 15.0 0.00 0.03 0.03 69 1006.8
20260505180046 56 109 10.0 16.0 0.00 0.03 0.03 72 1007.0
20260505175016 55 177 10.0 20.0 0.00 0.03 0.03 73 1006.9
20260505174017 55 200 10.0 20.0 0.00 0.03 0.03 71 1006.8
20260505173008 55 186 10.0 16.0 0.00 0.03 0.03 75 1006.8
20260505171935 54 157 9.0 16.0 0.00 0.03 0.03 74 1006.6
20260505170937 54 4 9.0 15.0 0.00 0.03 0.03 78 1006.8
20260505165919 54 184 5.0 12.0 0.00 0.03 0.03 80 1006.6
20260505164908 52 184 6.0 12.0 0.00 0.03 0.03 84 1006.4
20260505163906 51 215 6.0 11.0 0.00 0.03 0.03 86 1006.6
20260505162924 50 220 5.0 10.0 0.00 0.03 0.03 88 1006.3
20260505161944 49 194 6.0 11.0 0.00 0.03 0.03 88 1006.3
20260505160929 49 156 6.0 11.0 0.00 0.03 0.03 90 1006.1
20260505152747 48 195 7.0 12.0 0.00 0.03 0.03 91 1006.1
20260505151804 47 225 5.0 12.0 0.00 0.03 0.03 90 1005.9
20260505150750 46 199 5.0 11.0 0.00 0.02 0.02 89 1006.0
20260505140507 47 179 2.0 5.0 0.00 0.02 0.02 85 1005.4
20260505130249 44 244 4.0 8.0 0.00 0.02 0.02 88 1005.1
20260505124149 44 226 8.0 14.0 0.00 0.02 0.02 89 1005.0
20260505123121 44 142 7.0 20.0 0.00 0.02 0.02 89 1005.6
20260505122116 45 165 10.0 20.0 0.00 0.01 0.01 88 1006.1
20260505121042 45 194 11.0 22.0 0.00 0.01 0.01 88 1006.1
20260505120048 45 215 13.0 31.0 0.00 0.00 0.00 86 1006.0
20260505115049 46 163 15.0 31.0 0.00 0.00 0.00 83 1005.9
20260505112932 49 230 15.0 28.0 0.00 0.00 0.00 75 1005.6
20260505111953 50 206 14.0 28.0 0.00 0.00 0.00 72 1005.6
20260505111008 51 194 12.0 27.0 0.00 0.00 0.00 73 1005.5
20260505100755 50 168 8.0 17.0 0.00 0.00 0.00 78 1005.5
20260505095739 50 202 9.0 15.0 0.00 0.00 0.00 77 1005.6
20260505094804 50 156 8.0 13.0 0.00 0.00 0.00 77 1005.9
20260505093815 50 144 8.0 13.0 0.00 0.00 0.00 76 1005.7
20260505092749 50 186 8.0 13.0 0.00 0.00 0.00 76 1005.4
20260505091724 50 159 6.0 12.0 0.00 0.00 0.00 75 1005.7
20260505090740 50 194 6.0 12.0 0.00 0.00 0.00 74 1005.7
20260505085717 50 180 6.0 15.0 0.00 0.00 0.00 74 1005.5
20260505084646 51 152 7.0 15.0 0.00 0.00 0.00 74 1005.6
20260505083658 51 163 6.0 12.0 0.00 0.00 0.00 73 1005.6
20260505082658 51 199 6.0 11.0 0.00 0.00 0.00 73 1005.9